Regional Weather Roundup
Issued by NWS

Home | Current Version | Previous Version | Graphics & Text | Print | Product List | Glossary Off
Versions: 1 2 3 4 5 6 7 8 9 10 11 12 13 14 15 16 17 18 19 20 21 22 23 24 25 26 27 28 29 30 31 32 33 34 35 36 37 38 39 40 41 42 43 44 45 46 47 48 49 50

000
ASUS43 KTOP 240859
RWRKS

WEATHER ROUNDUP FOR KANSAS
NATIONAL WEATHER SERVICE GOODLAND KS
400 AM CDT TUE MAY 24 2016

NOTE:  "FAIR" INDICATES FEW OR NO CLOUDS BELOW 12,000 FEET WITH NO
SIGNIFICANT WEATHER AND/OR OBSTRUCTIONS TO VISIBILITY.

KSZ001>006-013>018-027>032-041>047-241000-
NORTHWEST KANSAS

CITY           SKY/WX    TMP DP  RH WIND       PRES   REMARKS
GOODLAND       CLOUDY    54  46  74 N9        29.84R
HAYS           CLOUDY    64  52  63 E15       29.77F THUNDER
HILL CITY      TSTM      60  58  92 SE13      29.82R FOG
RUSSELL        CLOUDY    60  58  92 E13       29.79F
$$

KSZ061>065-074>080-084>089-241000-
SOUTHWEST KANSAS

CITY           SKY/WX    TMP DP  RH WIND       PRES   REMARKS
DODGE CITY     MOCLDY    66  66 100 S13       29.73S
ELKHART          N/A     66  59  78 S15         N/A
GARDEN CITY    CLEAR     66  64  93 S12       29.73S
GREAT BEND     CLOUDY    70  63  78 NE10      29.77S
LIBERAL        CLEAR     63  57  82 S7        29.78R
$$

KSZ066>073-081>083-090>101-241000-
SOUTHEAST KANSAS

CITY           SKY/WX    TMP DP  RH WIND       PRES   REMARKS
CHANUTE        CLOUDY    67  62  84 SE6       29.86S
COFFEYVILLE    CLOUDY    67  63  87 SE9       29.85S
HUTCHINSON     CLOUDY    69  67  93 E8        29.80R
MEDICINE LODGE   N/A     70  67  90 SE8       29.75F
NEWTON         CLOUDY    66  63  88 SE8       29.85S
PARSONS        CLOUDY    68  64  87 S5        29.87R
WICHITA INTL   CLOUDY    70  66  87 SE9       29.81R
WICHITA JABRA  CLOUDY    67  66  97 SE9       29.81R
WINFIELD       CLOUDY    69  66  90 SE8       29.83R
$$

KSZ007>012-019>026-033>040-048>060-102>105-241000-
NORTHEAST KANSAS

CITY           SKY/WX    TMP DP  RH WIND       PRES   REMARKS
CONCORDIA      LGT RAIN  62  58  86 SE15      29.84F
EMPORIA        CLOUDY    64  63  96 E6        29.86S
LAWRENCE       PTCLDY    60  59  96 SE5       29.88R
MANHATTAN      TSTM      66  62  87 N16G28    29.91R FOG
OLATHE IND     MOCLDY    62  61  96 SE7       29.88F
OLATHE EXE     PTCLDY    60  59  96 S7        29.89R
SALINA         CLOUDY    69  67  93 N18       29.88R
TOPEKA BILLARD PTCLDY    61  59  93 SE5       29.86S
TOPEKA FORBES  PTCLDY    62  60  93 NE3       29.87R
$$



USA.gov is the U.S. government's official web portal to all federal, state and local government web resources and services.